Simultaneous Nadir Overpasses (SNOs) Predictions

Prediction of SNOs between METOP-C and LANDSAT-8 Satellite Orbit:

Table of predicted SNOs for the next 14.0 days since TLE Epoch: 6/11/2022
Index Date (METOP-C) Time (METOP-C) Lat,Lon (METOP-C) SZA (METOP-C ) Date (LANDSAT-8) Time (LANDSAT-8) Lat,Lon (LANDSAT-8) SZA (LANDSAT-8 ) Distance(km) Time Diff (sec)
1 06/11/2022 04:39:01 81.19, 151.56 60.42 06/11/2022 04:38:27 81.18, 151.38 60.38 3.16 34
2 06/13/2022 23:22:45 -81.18, 50.27 119.81 06/13/2022 23:23:18 -81.18, 50.09 119.82 3.14 33
3 06/14/2022 00:13:24 81.19,-142.03 60.24 06/14/2022 00:12:44 81.18,-142.16 60.20 2.36 40
4 06/16/2022 18:57:08 -81.17, 116.34 119.99 06/16/2022 18:57:34 -81.18, 116.50 119.95 2.87 26
5 06/16/2022 19:47:46 81.19, -75.65 60.10 06/16/2022 19:47:00 81.18, -75.79 60.06 2.46 46
6 06/19/2022 14:31:31 -81.17,-177.26 120.06 06/19/2022 14:31:51 -81.17,-177.18 120.05 1.42 20
7 06/19/2022 15:22:08 81.20, -8.92 60.07 06/19/2022 15:21:16 81.19, -9.12 60.02 3.30 52
8 06/22/2022 10:05:53 -81.18,-110.51 120.04 06/22/2022 10:06:07 -81.18,-110.56 120.04 0.79 14



Historial Predications of SNOs between METOP-C and LANDSAT-8
